{"data":{"norad_id":52866,"epoch":"2026-09-19T22:01:45.530112Z","epoch_age_seconds":119128,"freshness":"FRESH","line1":"1 52866U 22062AN  26262.91788808  .00000560  00000+0  28368-4 0  9997","line2":"2 52866  53.1595 220.7379 0001098  88.0529 272.0599 15.33548389235404","mean_motion":15.33548389,"eccentricity":0.0001098,"inclination_deg":53.1595,"raan_deg":220.7379,"arg_perigee_deg":88.0529,"mean_anomaly_deg":272.0599,"bstar":2.8368e-5,"rev_number":23540,"period_min":93.899873673957,"perigee_km":464.4841765277,"apogee_km":465.98698114601,"semimajor_km":6843.3725788369,"source":"CELESTRAK","updated_at":"2026-09-20T09:00:40.135432Z"}}